Overview Statistics Trail Chart Weather Telemetry Raw packets
 

This is the latest recevied weather packets stored in our database for station/object KC5DAQ-2. If no packets are shown the sender has not sent any weather packets the latest 10 day(s).

<< 508 509 510 511 512 513 514 >>
Time Temp. Humidity Pressure Rain* Wind** Luminosity Snow
1787958063 24.44° C 97% 1008.7 hPa 0.25 mm - 14 W/m² -
1787958003 24.44° C 97% 1008.8 hPa 0.25 mm - 14 W/m² -
1787957943 24.44° C 97% 1008.8 hPa 0.25 mm - 14 W/m² -
1787957883 24.44° C 97% 1008.9 hPa 0.25 mm - 14 W/m² -
1787957823 24.44° C 97% 1008.9 hPa 0.25 mm - 14 W/m² -
1787957761 24.44° C 97% 1008.9 hPa 0.25 mm - 14 W/m² -
1787957703 24.44° C 96% 1008.9 hPa 0.25 mm - 12 W/m² -
1787957642 24.44° C 96% 1008.9 hPa 0.25 mm - 12 W/m² -
1787957583 24.44° C 96% 1009 hPa 0.51 mm - 12 W/m² -
1787957521 24.44° C 96% 1009.1 hPa 0.51 mm - 12 W/m² -
1787957463 24.44° C 96% 1009.2 hPa 0.51 mm - 12 W/m² -
1787957401 24.44° C 96% 1009.3 hPa 0.51 mm - 12 W/m² -
1787957341 24.44° C 96% 1009.2 hPa 0.51 mm - 11 W/m² -
1787957283 24.44° C 95% 1009.1 hPa 0.76 mm - 9 W/m² -
1787957221 24.44° C 95% 1009 hPa 0.76 mm - 9 W/m² -
1787957163 24.44° C 95% 1009.1 hPa 1.02 mm - 7 W/m² -
1787957101 24.44° C 95% 1009.2 hPa 1.02 mm - 7 W/m² -
1787957044 24.44° C 95% 1009.3 hPa 1.27 mm - 7 W/m² -
1787956982 24.44° C 95% 1009.1 hPa 2.03 mm - 7 W/m² -
1787956922 24.44° C 95% 1009 hPa 2.03 mm - 7 W/m² -
1787956863 24.44° C 95% 1008.9 hPa 2.29 mm - 7 W/m² -
1787956803 24.44° C 94% 1008.7 hPa 2.29 mm - 7 W/m² -
1787956742 24.44° C 94% 1008.5 hPa 2.29 mm - 7 W/m² -
1787956681 24.44° C 94% 1008.3 hPa 2.79 mm - 9 W/m² -
1787956621 25° C 94% 1008.2 hPa 3.05 mm - 9 W/m² -

* Rain latest hour (hover to see other rain measurements)
** Current wind speed in m/s (hover to see current wind gust speed)